Regional Weather Roundup
Issued by NWS Columbia, SC

Home | Current Version | Previous Version | Text Only | Print | Product List | Glossary On
Versions: 1 2 3 4 5 6 7 8 9 10 11 12 13 14 15 16 17 18 19 20 21 22 23 24 25 26 27 28 29 30 31 32 33 34 35 36 37 38 39 40 41 42 43 44 45 46 47 48 49 50
000
ASUS42 KCAE 190310
RWRCAE
REGIONAL WEATHER ROUNDUP
NATIONAL WEATHER SERVICE COLUMBIA SC
1000 PM EST SUN FEB 18 2018

NOTE: "FAIR" INDICATES FEW OR NO CLOUDS BELOW 12,000 FEET WITH NO
SIGNIFICANT WEATHER AND/OR OBSTRUCTIONS TO VISIBILITY.

NOT ALL STATIONS ARE QUALITY CONTROLLED BY THE NATIONAL
WEATHER SERVICE. USE DATA WITH CAUTION...ESPECIALLY
DEWPOINT OBSERVATIONS.

SCZ001>056-GAZ040-063>065-077-190400-
...UPSTATE SOUTH CAROLINA...

CITY           SKY/WX    TMP DP  RH WIND       PRES   REMARKS
ANDERSON       LGT RAIN  57  55  93 E3        30.33R
LIBERTY        CLOUDY    56  48  74 E6        30.33R
SPARTANBURG    CLOUDY    57  41  54 CALM      30.34R
CLEMSON        LGT RAIN  55  52  89 CALM      30.34R FOG
GREENVILLE     LGT RAIN  60  45  57 E7        30.35R
GREENWOOD      LGT RAIN  57  55  93 SE8       30.35R
GREER          CLOUDY    58  44  60 NE3       30.35R
ROCK HILL      CLOUDY    54  43  66 CALM      30.35S
CHESTER        CLOUDY    55  45  67 SE3       30.36S
LAURENS        RAIN      61  50  67 S9        30.34R


...CENTRAL SOUTH CAROLINA...

CITY           SKY/WX    TMP DP  RH WIND       PRES   REMARKS
COLUMBIA APT   CLOUDY    60  50  69 SE8       30.35S
COLUMBIA OWENS CLOUDY    60  48  64 SE7       30.38R
MCENTIRE ANGB  CLOUDY    58  46  63 E7        30.37R
ORANGEBURG     CLOUDY    57  46  66 E3        30.36R
SUMTER SHAW    CLOUDY    58  44  61 E6        30.35S
NEWBERRY       CLOUDY    57  54  88 SE3       30.38R
AIKEN          CLOUDY    55  52  88 E6        30.38S
BARNWELL         N/A     59  55  88 E6        30.35S
MANNING        CLOUDY    55  19  24 MISG      30.36F
CAMDEN         CLOUDY    57  46  67 CALM      30.38S
LANCASTER      CLOUDY    59  46  63 SE5       30.37R
WINNSBORO      LGT RAIN  57  52  82 SE10      30.35S


...EASTERN AND COASTAL SOUTH CAROLINA...

CITY           SKY/WX    TMP DP  RH WIND       PRES   REMARKS
MYRTLE BEACH   CLOUDY    53  48  83 E13G24    30.40R
N MYRTLE BCH   LGT RAIN  53  48  83 E12       30.38S
CONWAY         CLOUDY    54  46  76 NE3       30.39R
MARION         LGT RAIN  54  45  71 E6        30.40R
HARTSVILLE     CLOUDY    54  45  71 SE5       30.38S
FLORENCE       CLOUDY    57  46  66 SE6       30.39R
DARLINGTON     CLOUDY    56  48  74 SE6       30.39R
CHARLESTON APT CLOUDY    61  54  77 E8        30.35S
MOUNT PLEASANT CLOUDY    59  55  88 NE7       30.36S
WALTERBORO     CLOUDY    59  50  72 CALM      30.36S
BEAUFORT       CLOUDY    62  55  77 NE7       30.34


...EASTERN GEORGIA...

CITY           SKY/WX    TMP DP  RH WIND       PRES   REMARKS
AUGUSTA BUSH F CLOUDY    59  56  89 E7        30.33R
AUGUSTA DANIEL CLOUDY    60  55  83 E9        30.34R
THOMSON        CLOUDY    60  57  90 S8        30.37R
WASHINGTON     MOCLDY    59  54  82 SE5       30.31S
CLAXTON        MOCLDY    62  59  88 NE3       30.34R
SYLVANIA       CLOUDY    61  59  92 SE3       30.34R
STATESBORO     CLOUDY    62  55  77 SE6       30.33S
SAVANNAH       MOCLDY    62  57  83 E8        30.34R


...SOUTHERN NORTH CAROLINA...

CITY           SKY/WX    TMP DP  RH WIND       PRES   REMARKS
CHARLOTTE      MOCLDY    57  36  45 E8        30.36R
MONROE         CLOUDY    56  41  57 CALM      30.36R
WADESBORO      CLOUDY    54  41  60 CALM      30.38R
ROCKINGHAM     MOCLDY    56  49  75 SE9       30.38R
RUTHERFORDTON  CLOUDY    54  37  53 CALM      30.37R
ASHEVILLE      CLOUDY    51  42  71 S5        30.35R

$$



USA.gov is the U.S. government's official web portal to all federal, state and local government web resources and services.